TimeCST,TemperatureF,Dew PointF,Humidity,Sea Level PressureIn,VisibilityMPH,Wind Direction,Wind SpeedMPH,Gust SpeedMPH,PrecipitationIn,Events,Conditions,WindDirDegrees,DateUTC
12:15 AM,32.0,26.6,80,30.33,10.0,NNE,6.9,-,N/A,,Clear,30,2012-01-15 06:15:00
12:35 AM,32.0,26.6,80,30.33,10.0,NNE,4.6,-,N/A,,Clear,30,2012-01-15 06:35:00
12:55 AM,30.2,26.6,86,30.34,10.0,Calm,Calm,-,N/A,,Clear,0,2012-01-15 06:55:00
1:15 AM,30.2,26.6,86,30.34,10.0,NE,3.5,-,N/A,,Clear,40,2012-01-15 07:15:00
1:35 AM,30.2,26.6,86,30.34,10.0,NE,3.5,-,N/A,,Clear,40,2012-01-15 07:35:00
1:55 AM,28.4,24.8,86,30.34,10.0,ENE,4.6,-,N/A,,Clear,60,2012-01-15 07:55:00
2:15 AM,30.2,24.8,80,30.35,10.0,Calm,Calm,-,N/A,,Clear,0,2012-01-15 08:15:00
2:35 AM,30.2,26.6,86,30.36,10.0,Calm,Calm,-,N/A,,Clear,0,2012-01-15 08:35:00
2:55 AM,30.2,24.8,80,30.36,10.0,Calm,Calm,-,N/A,,Clear,0,2012-01-15 08:55:00
3:15 AM,28.4,24.8,86,30.36,10.0,Calm,Calm,-,N/A,,Clear,0,2012-01-15 09:15:00
3:35 AM,28.4,24.8,86,30.37,10.0,Calm,Calm,-,N/A,,Clear,0,2012-01-15 09:35:00
4:15 AM,30.2,24.8,80,30.37,10.0,ESE,3.5,-,N/A,,Clear,120,2012-01-15 10:15:00
4:35 AM,30.2,24.8,80,30.37,10.0,ESE,5.8,-,N/A,,Clear,120,2012-01-15 10:35:00
4:56 AM,28.4,24.8,86,30.37,10.0,East,5.8,-,N/A,,Clear,100,2012-01-15 10:56:00
5:15 AM,28.4,24.8,86,30.38,10.0,East,3.5,-,N/A,,Clear,90,2012-01-15 11:15:00
5:35 AM,28.4,24.8,86,30.39,10.0,East,4.6,-,N/A,,Clear,90,2012-01-15 11:35:00
5:55 AM,28.4,24.8,86,30.39,10.0,ESE,4.6,-,N/A,,Clear,110,2012-01-15 11:55:00
6:15 AM,28.4,24.8,86,30.39,10.0,East,4.6,-,N/A,,Clear,100,2012-01-15 12:15:00
6:35 AM,26.6,24.8,93,30.39,10.0,East,4.6,-,N/A,,Clear,90,2012-01-15 12:35:00
6:55 AM,28.4,24.8,86,30.40,10.0,ESE,5.8,-,N/A,,Clear,110,2012-01-15 12:55:00
7:15 AM,28.4,23.0,80,30.40,10.0,ESE,6.9,-,N/A,,Clear,110,2012-01-15 13:15:00
7:55 AM,28.4,24.8,86,30.40,10.0,East,8.1,-,N/A,,Clear,90,2012-01-15 13:55:00
8:15 AM,30.2,28.4,93,30.42,10.0,SSE,6.9,-,N/A,,Clear,150,2012-01-15 14:15:00
8:35 AM,32.0,28.4,87,30.43,10.0,SSE,6.9,-,N/A,,Clear,160,2012-01-15 14:35:00
8:55 AM,33.8,28.4,81,30.43,10.0,SSE,8.1,-,N/A,,Clear,150,2012-01-15 14:55:00
9:15 AM,33.8,28.4,81,30.43,10.0,SSE,10.4,-,N/A,,Clear,160,2012-01-15 15:15:00
9:35 AM,35.6,26.6,70,30.44,10.0,SSE,8.1,-,N/A,,Clear,160,2012-01-15 15:35:00
10:15 AM,37.4,26.6,65,30.45,10.0,South,11.5,-,N/A,,Clear,170,2012-01-15 16:15:00
10:35 AM,39.2,26.6,61,30.44,10.0,South,10.4,-,N/A,,Clear,170,2012-01-15 16:35:00
10:55 AM,39.2,28.4,65,30.43,10.0,South,9.2,-,N/A,,Clear,180,2012-01-15 16:55:00
11:15 AM,39.2,28.4,65,30.42,10.0,South,9.2,-,N/A,,Clear,170,2012-01-15 17:15:00
11:35 AM,41.0,28.4,61,30.41,10.0,SSE,10.4,-,N/A,,Clear,150,2012-01-15 17:35:00
12:15 PM,42.8,28.4,57,30.38,10.0,SSE,10.4,-,N/A,,Clear,160,2012-01-15 18:15:00
12:35 PM,44.6,30.2,57,30.36,10.0,SSE,9.2,-,N/A,,Clear,150,2012-01-15 18:35:00
12:55 PM,44.6,30.2,57,30.34,10.0,South,11.5,-,N/A,,Clear,170,2012-01-15 18:55:00
1:15 PM,46.4,30.2,53,30.33,10.0,South,12.7,-,N/A,,Clear,170,2012-01-15 19:15:00
1:35 PM,46.4,28.4,50,30.32,10.0,SSE,10.4,-,N/A,,Clear,160,2012-01-15 19:35:00
1:55 PM,46.4,30.2,53,30.30,10.0,South,13.8,-,N/A,,Clear,170,2012-01-15 19:55:00
2:15 PM,48.2,30.2,50,30.30,10.0,South,13.8,-,N/A,,Clear,170,2012-01-15 20:15:00
2:35 PM,48.2,30.2,50,30.29,10.0,South,15.0,-,N/A,,Clear,180,2012-01-15 20:35:00
2:55 PM,48.2,32.0,54,30.29,10.0,South,16.1,19.6,N/A,,Clear,170,2012-01-15 20:55:00
3:15 PM,48.2,33.8,58,30.28,10.0,South,17.3,-,N/A,,Clear,170,2012-01-15 21:15:00
3:35 PM,46.4,33.8,62,30.28,10.0,South,10.4,-,N/A,,Clear,170,2012-01-15 21:35:00
3:55 PM,46.4,33.8,62,30.27,10.0,South,10.4,-,N/A,,Clear,170,2012-01-15 21:55:00
4:15 PM,44.6,33.8,66,30.27,10.0,SSE,9.2,-,N/A,,Clear,160,2012-01-15 22:15:00
4:35 PM,44.6,35.6,71,30.26,10.0,SSE,8.1,-,N/A,,Clear,160,2012-01-15 22:35:00
4:55 PM,44.6,35.6,71,30.24,10.0,SSE,6.9,-,N/A,,Clear,150,2012-01-15 22:55:00
5:15 PM,42.8,35.6,76,30.24,10.0,SE,5.8,-,N/A,,Clear,140,2012-01-15 23:15:00
5:35 PM,42.8,35.6,76,30.24,10.0,SE,4.6,-,N/A,,Clear,140,2012-01-15 23:35:00
5:55 PM,41.0,35.6,81,30.23,10.0,SE,5.8,-,N/A,,Clear,130,2012-01-15 23:55:00
6:15 PM,39.2,33.8,81,30.23,10.0,Calm,Calm,-,N/A,,Clear,0,2012-01-16 00:15:00
6:35 PM,39.2,33.8,81,30.22,10.0,SE,4.6,-,N/A,,Clear,140,2012-01-16 00:35:00
6:55 PM,39.2,33.8,81,30.22,10.0,SSE,6.9,-,N/A,,Clear,150,2012-01-16 00:55:00
7:15 PM,39.2,33.8,81,30.20,10.0,SE,8.1,-,N/A,,Clear,130,2012-01-16 01:15:00
7:35 PM,39.2,33.8,81,30.20,10.0,SSE,10.4,-,N/A,,Clear,150,2012-01-16 01:35:00
7:55 PM,41.0,33.8,76,30.19,10.0,SE,5.8,-,N/A,,Clear,140,2012-01-16 01:55:00
8:15 PM,39.2,33.8,81,30.19,10.0,South,8.1,-,N/A,,Clear,170,2012-01-16 02:15:00
8:35 PM,42.8,35.6,76,30.18,10.0,South,11.5,-,N/A,,Clear,170,2012-01-16 02:35:00
8:55 PM,44.6,35.6,71,30.17,10.0,SSE,12.7,-,N/A,,Clear,160,2012-01-16 02:55:00
9:15 PM,44.6,35.6,71,30.17,10.0,South,12.7,-,N/A,,Clear,170,2012-01-16 03:15:00
9:55 PM,44.6,35.6,71,30.16,10.0,South,15.0,-,N/A,,Clear,170,2012-01-16 03:55:00
10:15 PM,44.6,35.6,71,30.17,10.0,South,10.4,-,N/A,,Clear,170,2012-01-16 04:15:00
10:35 PM,42.8,35.6,76,30.16,10.0,South,11.5,-,N/A,,Clear,170,2012-01-16 04:35:00
10:55 PM,42.8,35.6,76,30.15,10.0,South,10.4,-,N/A,,Clear,170,2012-01-16 04:55:00
11:15 PM,42.8,35.6,76,30.15,10.0,South,11.5,-,N/A,,Clear,180,2012-01-16 05:15:00
11:35 PM,44.6,35.6,71,30.13,10.0,South,15.0,-,N/A,,Clear,170,2012-01-16 05:35:00
11:55 PM,46.4,37.4,71,30.12,10.0,South,12.7,-,N/A,,Clear,170,2012-01-16 05:55:00